Regional Weather Roundup
Issued by NWS

Home | Current Version | Previous Version | Graphics & Text | Print | Product List | Glossary Off
Versions: 1 2 3 4 5 6 7 8 9 10 11 12 13 14 15 16 17 18 19 20 21 22 23 24 25 26 27 28 29 30 31 32 33 34 35 36 37 38 39 40 41 42 43 44 45 46 47 48 49 50

000
ASUS43 KFSD 141802
RWRSD

WEATHER ROUNDUP FOR SOUTH DAKOTA
NATIONAL WEATHER SERVICE SIOUX FALLS SD
1200 PM CST THU DEC 14 2017

NOTE: "FAIR" INDICATES FEW OR NO CLOUDS BELOW 12,000 FEET WITH NO
SIGNIFICANT WEATHER AND/OR OBSTRUCTIONS TO VISIBILITY.


SDZ001>005-009-010-012>017-141900-
NORTHWEST AND NORTH CENTRAL SOUTH DAKOTA

CITY           SKY/WX    TMP DP  RH WIND       PRES   REMARKS
BUFFALO          N/A     32  28  85 NW23      30.14R WCI  19
FAITH            N/A     32  31  96 NW20      30.15R WCI  20
MOBRIDGE       CLOUDY    35  29  78 N20       30.08S WCI  24
$$

SDZ012>016-024>037-041>051-057-063-072>074-141900-
SOUTHWEST AND SOUTH CENTRAL SOUTH DAKOTA

CITY           SKY/WX    TMP DP  RH WIND       PRES   REMARKS
RAPID CTY ARPT LGT SNOW  33  24  69 NW30G44   30.19R WCI  19
PIERRE         CLOUDY    34  32  92 N20       30.11R WCI  23
CUSTER         CLOUDY    25  12  58 NW10G22   30.13R WCI  15
PHILIP         MIX PCPN  34  32  92 NW22G31   30.16S WCI  22
PINE RIDGE     CLOUDY    34  23  64 N21G30    30.19R WCI  22
SPEARFISH      LGT SNOW  28  25  86 NW16G25   30.23R WCI  17
WINNER         CLOUDY    36  33  89 NW22G29   30.11R
$$

SDZ004>011-016>023-039-040-141900-
NORTHEAST SOUTH DAKOTA

CITY           SKY/WX    TMP DP  RH WIND       PRES   REMARKS
ABERDEEN       CLOUDY    33  31  92 N13       30.07S WCI  24
WATERTOWN      FLURRIES  30  28  92 NW8       30.01S WCI  22
BROOKINGS      MIX PCPN  31  27  85 N8        30.02F WCI  23
SISSETON         N/A     26  24  92 N10       30.07R WCI  16
$$

SDZ017-020-022-023-036>040-048>070-141900-
SOUTHEAST SOUTH DAKOTA

CITY           SKY/WX    TMP DP  RH WIND       PRES   REMARKS
SIOUX FALLS    CLOUDY    35  27  72 NW7       30.04F WCI  29
HURON          CLOUDY    34  29  82 NW14      30.06S WCI  25
CHAMBERLAIN    CLOUDY    36  35  97 NW12G21   30.09S
MITCHELL       CLOUDY    36  28  73 W9        30.07F
YANKTON        CLOUDY    36  25  64 NW9       30.07S
$$

ABBREVIATIONS USED IN REMARKS
   TC - TEMPERATURE IN CELSIUS
  WCI - WIND CHILL INDEX
   HX - HEAT INDEX
  VSB - VISIBILITY





USA.gov is the U.S. government's official web portal to all federal, state and local government web resources and services.